Location: Caltech
(34.1382°N, 118.1253°W)
Time: 14:15:13
(UTC-07:00)

NOSS 3-2 (A) - Visible Passes

Search period start: 02 September 2014 00:00
Search period end: 12 September 2014 00:00
Orbit: 943 x 1266 km, 63.4° (Epoch: 28 August)

Date Brightness Start Highest point End Pass type
(mag) Time Alt. Az. Time Alt. Az. Time Alt. Az.
02 Sep 5.9 03:43:40 10° SE 03:46:06 12° ESE 03:48:35 10° E visible
02 Sep 3.5 05:29:44 10° SSW 05:35:57 82° WNW 05:42:34 10° NNE visible
03 Sep 4.0 04:46:04 18° S 04:50:44 59° ESE 04:57:09 10° NE visible
04 Sep 4.8 04:02:54 23° SSE 04:05:41 33° ESE 04:11:22 10° NE visible
04 Sep 4.2 05:50:35 10° WSW 05:56:22 38° NW 06:02:30 10° NNE visible
05 Sep 5.5 03:19:39 17° ESE 03:20:46 18° ESE 03:24:53 10° ENE visible
05 Sep 3.6 05:07:05 25° SW 05:10:53 62° WNW 05:17:26 10° NNE visible
06 Sep 3.5 04:23:45 49° SSW 04:25:34 79° ESE 04:32:09 10° NNE visible
07 Sep 4.2 03:40:21 45° ESE 03:40:26 45° ESE 03:46:35 10° NE visible
07 Sep 4.5 05:27:47 18° W 05:31:27 29° NW 05:37:10 10° NNE visible
08 Sep 5.3 02:56:54 23° E 02:56:54 23° E 03:00:33 10° ENE visible
08 Sep 3.9 04:44:19 40° W 04:45:51 47° NW 04:52:14 10° NNE visible
09 Sep 6.2 02:13:23 10° ENE 02:13:23 10° ENE 02:13:23 10° ENE visible
09 Sep 3.4 04:00:48 76° NNW 04:00:48 76° NNW 04:07:05 10° NNE visible
09 Sep 5.3 05:48:55 10° WNW 05:52:29 15° NW 05:56:11 10° N visible
10 Sep 4.5 03:17:14 42° ENE 03:17:14 42° ENE 03:21:41 10° NE visible
10 Sep 4.8 05:04:39 20° WNW 05:06:35 23° NW 05:11:46 10° N visible
11 Sep 5.6 02:33:37 21° ENE 02:33:37 21° ENE 02:35:55 10° NE visible
11 Sep 4.3 04:21:01 36° NW 04:21:01 36° NW 04:26:58 10° NNE visible
